Hourly Weather Rusowo

Today, 21 April, Wednesday

Time Temperature Precipitation Wind Pressure Humidity
00:00 +5°C° 0 mm 2 mps 758 mmHg 83%
01:00 +5°C° 0 mm 2 mps 758 mmHg 85%
02:00 +5°C° 0 mm 2 mps 758 mmHg 85%
03:00 +4°C° 0 mm 2 mps 757 mmHg 85%
04:00 +4°C° 0 mm 2 mps 757 mmHg 86%
05:00 +6°C° 0 mm 2 mps 757 mmHg 81%
06:00 +7°C° 0 mm 3 mps 757 mmHg 77%
07:00 +8°C° 0 mm 3 mps 757 mmHg 71%
08:00 +8°C° 0 mm 4 mps 757 mmHg 65%
09:00 +11°C° 0 mm 4 mps 757 mmHg 60%
10:00 +12°C° 0 mm 5 mps 757 mmHg 54%
11:00 +11°C° 0 mm 6 mps 757 mmHg 55%
12:00 +11°C° 0 mm 6 mps 756 mmHg 56%
13:00 +11°C° 0 mm 7 mps 756 mmHg 57%
14:00 +10°C° 0 mm 7 mps 756 mmHg 62%
15:00 +9°C° 0 mm 7 mps 756 mmHg 67%
16:00 +8°C° 0 mm 7 mps 756 mmHg 72%
17:00 +6°C° 0 mm 7 mps 756 mmHg 72%
18:00 +6°C° 0 mm 7 mps 756 mmHg 71%
19:00 +5°C° 0 mm 7 mps 756 mmHg 70%
20:00 +4°C° 0 mm 7 mps 756 mmHg 70%
21:00 +4°C° 0 mm 8 mps 756 mmHg 69%
22:00 +2°C° 0 mm 8 mps 756 mmHg 68%
23:00 +2°C° 0 mm 8 mps 756 mmHg 70%

Tomorrow, 22 April, Thursday

Time Temperature Precipitation Wind Pressure Humidity
00:00 +1°C° 0 mm 9 mps 756 mmHg 72%
01:00 +1°C° 0 mm 9 mps 756 mmHg 74%
02:00 +1°C° 0 mm 9 mps 756 mmHg 76%
03:00 +1°C° 0 mm 9 mps 755 mmHg 78%
04:00 +1°C° 0 mm 10 mps 755 mmHg 79%
05:00 +2°C° 0 mm 10 mps 756 mmHg 78%
06:00 +2°C° 0 mm 10 mps 756 mmHg 76%
07:00 +3°C° 0 mm 11 mps 756 mmHg 75%
08:00 +3°C° 0.1 mm 11 mps 756 mmHg 70%
09:00 +4°C° 0.1 mm 11 mps 757 mmHg 66%
10:00 +4°C° 0.1 mm 11 mps 757 mmHg 62%
11:00 +4°C° 0 mm 11 mps 757 mmHg 58%
12:00 +4°C° 0 mm 11 mps 758 mmHg 55%
13:00 +4°C° 0 mm 11 mps 758 mmHg 51%
14:00 +4°C° 0 mm 11 mps 758 mmHg 52%
15:00 +5°C° 0 mm 10 mps 759 mmHg 52%
16:00 +5°C° 0 mm 10 mps 759 mmHg 53%
17:00 +5°C° 0 mm 9 mps 759 mmHg 55%
18:00 +3°C° 0 mm 9 mps 760 mmHg 56%
19:00 +4°C° 0 mm 8 mps 760 mmHg 58%
20:00 +2°C° 0 mm 8 mps 760 mmHg 60%
21:00 +3°C° 0 mm 7 mps 760 mmHg 63%
22:00 +3°C° 0 mm 7 mps 760 mmHg 66%
23:00 +2°C° 0 mm 6 mps 761 mmHg 68%

Day after tomorrow, 23 April, Friday

Time Temperature Precipitation Wind Pressure Humidity
00:00 +2°C° 0 mm 6 mps 761 mmHg 71%
01:00 +2°C° 0 mm 6 mps 761 mmHg 74%
02:00 +1°C° 0.1 mm 5 mps 761 mmHg 77%
03:00 +1°C° 0.1 mm 5 mps 761 mmHg 79%
04:00 0°C° 0.1 mm 5 mps 761 mmHg 82%
05:00 +1°C° 0.2 mm 5 mps 761 mmHg 81%
06:00 +2°C° 0.2 mm 6 mps 761 mmHg 80%
07:00 +3°C° 0.2 mm 7 mps 761 mmHg 80%
08:00 +4°C° 0.1 mm 7 mps 762 mmHg 71%
09:00 +4°C° 0.1 mm 7 mps 762 mmHg 63%
10:00 +5°C° 0.1 mm 7 mps 762 mmHg 55%
11:00 +5°C° 0 mm 7 mps 763 mmHg 51%
12:00 +6°C° 0 mm 8 mps 763 mmHg 47%
13:00 +6°C° 0 mm 9 mps 764 mmHg 42%
14:00 +6°C° 0 mm 9 mps 764 mmHg 44%
15:00 +6°C° 0 mm 9 mps 764 mmHg 46%
16:00 +6°C° 0 mm 8 mps 764 mmHg 48%
17:00 +5°C° 0 mm 8 mps 764 mmHg 53%
18:00 +4°C° 0 mm 7 mps 765 mmHg 59%
19:00 +3°C° 0 mm 7 mps 765 mmHg 65%
20:00 +3°C° 0 mm 6 mps 765 mmHg 66%
21:00 +2°C° 0 mm 6 mps 765 mmHg 68%
22:00 +2°C° 0 mm 5 mps 765 mmHg 69%
23:00 +1°C° 0 mm 5 mps 765 mmHg 72%

24 April, Saturday

Time Temperature Precipitation Wind Pressure Humidity
00:00 +1°C° 0 mm 5 mps 765 mmHg 75%
01:00 0°C° 0 mm 4 mps 765 mmHg 78%
02:00 0°C° 0 mm 4 mps 765 mmHg 81%
03:00 0°C° 0 mm 4 mps 765 mmHg 83%
04:00 0°C° 0 mm 4 mps 765 mmHg 85%
05:00 +1°C° 0 mm 4 mps 765 mmHg 79%
06:00 +3°C° 0 mm 3 mps 765 mmHg 73%
07:00 +5°C° 0 mm 3 mps 765 mmHg 67%
08:00 +6°C° 0 mm 4 mps 765 mmHg 60%
09:00 +7°C° 0 mm 4 mps 765 mmHg 53%
10:00 +7°C° 0 mm 4 mps 765 mmHg 46%
11:00 +7°C° 0 mm 5 mps 765 mmHg 47%
12:00 +7°C° 0 mm 5 mps 765 mmHg 47%
13:00 +7°C° 0 mm 5 mps 765 mmHg 47%
14:00 +7°C° 0 mm 5 mps 765 mmHg 48%
15:00 +7°C° 0 mm 5 mps 765 mmHg 48%
16:00 +7°C° 0 mm 5 mps 765 mmHg 48%
17:00 +5°C° 0 mm 4 mps 766 mmHg 55%
18:00 +4°C° 0 mm 3 mps 766 mmHg 62%
19:00 +4°C° 0 mm 2 mps 766 mmHg 68%
20:00 +3°C° 0 mm 3 mps 766 mmHg 70%
21:00 +2°C° 0 mm 3 mps 766 mmHg 72%
22:00 +1°C° 0 mm 3 mps 767 mmHg 74%
23:00 +1°C° 0 mm 3 mps 767 mmHg 75%

25 April, Sunday

Time Temperature Precipitation Wind Pressure Humidity
00:00 +2°C° 0 mm 2 mps 767 mmHg 77%
01:00 +3°C° 0 mm 1 mps 767 mmHg 78%
02:00 +2°C° 0 mm 2 mps 767 mmHg 78%
03:00 0°C° 0 mm 3 mps 767 mmHg 77%
04:00 -1°C° 0 mm 4 mps 767 mmHg 77%
05:00 +1°C° 0 mm 4 mps 767 mmHg 71%
06:00 +2°C° 0 mm 5 mps 767 mmHg 64%
07:00 +5°C° 0 mm 5 mps 767 mmHg 58%
08:00 +6°C° 0 mm 5 mps 767 mmHg 54%
09:00 +6°C° 0 mm 5 mps 767 mmHg 50%
10:00 +7°C° 0 mm 5 mps 767 mmHg 46%
11:00 +7°C° 0 mm 5 mps 767 mmHg 46%
12:00 +7°C° 0 mm 6 mps 767 mmHg 47%
13:00 +7°C° 0 mm 6 mps 767 mmHg 47%
14:00 +7°C° 0 mm 6 mps 766 mmHg 46%
15:00 +7°C° 0 mm 6 mps 766 mmHg 46%
16:00 +7°C° 0 mm 6 mps 765 mmHg 45%
17:00 +6°C° 0 mm 5 mps 765 mmHg 52%
18:00 +5°C° 0 mm 4 mps 765 mmHg 58%
19:00 +3°C° 0 mm 3 mps 764 mmHg 64%
20:00 +3°C° 0 mm 3 mps 764 mmHg 66%
21:00 +2°C° 0 mm 3 mps 763 mmHg 67%
22:00 +2°C° 0 mm 3 mps 763 mmHg 69%
23:00 +2°C° 0 mm 3 mps 763 mmHg 69%

26 April, Monday

Time Temperature Precipitation Wind Pressure Humidity
00:00 +2°C° 0 mm 3 mps 762 mmHg 69%
01:00 +1°C° 0 mm 4 mps 762 mmHg 69%
02:00 +2°C° 0 mm 3 mps 762 mmHg 72%
03:00 +1°C° 0 mm 3 mps 761 mmHg 75%
04:00 +1°C° 0 mm 3 mps 761 mmHg 79%
05:00 +3°C° 0 mm 3 mps 761 mmHg 76%
06:00 +4°C° 0 mm 3 mps 761 mmHg 73%
07:00 +5°C° 0 mm 3 mps 761 mmHg 70%
08:00 +7°C° 0 mm 3 mps 761 mmHg 61%
09:00 +8°C° 0 mm 3 mps 761 mmHg 52%
10:00 +9°C° 0 mm 3 mps 761 mmHg 43%
11:00 +9°C° 0 mm 3 mps 761 mmHg 43%
12:00 +9°C° 0 mm 3 mps 761 mmHg 42%
13:00 +10°C° 0 mm 4 mps 761 mmHg 41%
14:00 +8°C° 0 mm 4 mps 761 mmHg 42%
15:00 +8°C° 0 mm 4 mps 761 mmHg 43%
16:00 +8°C° 0 mm 4 mps 761 mmHg 44%
17:00 +6°C° 0 mm 4 mps 761 mmHg 50%
18:00 +5°C° 0 mm 4 mps 760 mmHg 57%
19:00 +4°C° 0 mm 4 mps 760 mmHg 63%
20:00 +3°C° 0 mm 4 mps 760 mmHg 64%
21:00 +1°C° 0 mm 4 mps 760 mmHg 65%
22:00 +1°C° 0 mm 4 mps 760 mmHg 66%
23:00 0°C° 0 mm 4 mps 760 mmHg 69%
Show more